Terug naar catalogus

COSMOS 252 DEB

ActiefLEO
NORAD 18431·DEBRIS·🇷🇺 Russia

Gelanceerd Nov 1, 1968 vanaf Baikonur Cosmodrome

Loading…

Volgende Passages (komende 24 uur)

TLE

VersSource: Space-Track

Epoch: Sep 14, 2026, 08:54 UTC

1 18431U 68097EJ  26257.37108020 -.00000210  00000-0 -29704-4 0  9991
2 18431  62.3496 210.4396 0849307 176.2792 184.5108 13.20498723460128

Volg COSMOS 252 DEB in realtime met AllMySat

Download on the App Store